GW2672 Weather Reports


Display with metric or nautical units.
time (UTC)temp
F
wind
direction
speed
MPH
gust
MPH
rain 1hr
in
rain 24hr
in
rain mn
in
humidity
%
barometer
mb
20260504023054 62 0 1.0 3.0 0.00 0.00 0.00 68 1019.2
20260504021556 63 213 2.0 6.0 0.00 0.00 0.00 68 1019.1
20260504020057 63 214 2.0 5.0 0.00 0.00 0.00 67 1019.1
20260504014557 63 209 1.0 4.0 0.00 0.00 0.00 66 1019.0
20260504013111 64 0 0.0 3.0 0.00 0.00 0.00 64 1018.7
20260504011554 65 0 0.0 4.0 0.00 0.00 0.00 63 1018.6
20260504010104 66 184 0.0 6.0 0.00 0.00 0.00 60 1018.3
20260504004608 67 190 1.0 5.0 0.00 0.00 0.00 59 1018.3
20260504003056 69 173 1.0 4.0 0.00 0.00 0.00 56 1018.1
20260504001554 72 0 1.0 3.0 0.00 0.00 0.00 49 1018.0
20260504000114 73 248 0.0 6.0 0.00 0.00 0.00 44 1017.8
20260503234555 74 228 0.0 7.0 0.00 0.00 0.00 43 1017.8
20260503233057 76 244 1.0 7.0 0.00 0.00 0.00 40 1017.9
20260503231556 76 0 2.0 6.0 0.00 0.00 0.00 38 1018.0
20260503224559 76 293 5.0 8.0 0.00 0.00 0.00 37 1018.1
20260503223058 77 269 4.0 11.0 0.00 0.00 0.00 36 1018.0
20260503221605 77 327 5.0 9.0 0.00 0.00 0.00 37 1018.1
20260503220122 77 306 6.0 11.0 0.00 0.00 0.00 37 1018.2
20260503214601 77 232 6.0 10.0 0.00 0.00 0.00 37 1018.2
20260503213059 77 298 4.0 12.0 0.00 0.00 0.00 35 1018.3
20260503211557 76 0 2.0 8.0 0.00 0.00 0.00 35 1018.5
20260503210059 76 293 4.0 10.0 0.00 0.00 0.00 35 1018.7
20260503204605 76 278 3.0 13.0 0.00 0.00 0.00 37 1018.8
20260503203104 77 234 4.0 9.0 0.00 0.00 0.00 35 1019.1
20260503201603 76 257 2.0 12.0 0.00 0.00 0.00 36 1019.4
20260503194603 75 290 3.0 10.0 0.00 0.00 0.00 37 1019.9
20260503193100 75 340 6.0 12.0 0.00 0.00 0.00 38 1020.1
20260503191558 75 321 8.0 14.0 0.00 0.00 0.00 36 1020.4
20260503190055 75 268 4.0 12.0 0.00 0.00 0.00 37 1020.5
20260503184604 74 36 5.0 11.0 0.00 0.00 0.00 40 1020.6
20260503183055 75 296 6.0 11.0 0.00 0.00 0.00 36 1021.0
20260503181554 74 331 7.0 14.0 0.00 0.00 0.00 35 1021.3
20260503180116 74 328 8.0 13.0 0.00 0.00 0.00 39 1021.5
20260503174555 73 335 7.0 16.0 0.00 0.00 0.00 39 1021.8
20260503173106 73 61 5.0 12.0 0.00 0.00 0.00 35 1021.8
20260503171557 73 338 4.0 13.0 0.00 0.00 0.00 38 1021.8
20260503170106 73 5 5.0 14.0 0.00 0.00 0.00 39 1022.0
20260503160115 71 5 5.0 12.0 0.00 0.00 0.00 39 1022.4
20260503081554 48 0 0.0 0.0 0.00 0.13 0.00 82 1019.8
20260503071557 50 0 0.0 0.0 0.00 0.21 0.00 79 1019.4
20260503060113 52 0 0.0 2.0 0.00 0.34 0.00 74 1019.2
20260503054620 53 335 1.0 3.0 0.00 0.52 0.00 74 1019.2
20260503053054 55 335 1.0 3.0 0.00 0.52 0.00 69 1019.1
20260503051600 56 335 2.0 3.0 0.00 0.52 0.00 67 1019.0
20260503050055 56 323 2.0 4.0 0.00 0.52 0.00 67 1018.9
20260503044557 55 336 3.0 4.0 0.00 0.64 0.52 68 1019.1
20260503043057 55 336 2.0 5.0 0.00 0.64 0.52 69 1018.9
20260503041556 55 349 3.0 6.0 0.00 0.64 0.52 69 1018.9
20260503034558 57 331 2.0 5.0 0.00 0.66 0.52 67 1018.7
20260503033055 57 330 2.0 5.0 0.00 0.66 0.52 67 1018.6
20260503031555 56 324 3.0 5.0 0.00 0.66 0.52 69 1018.4
20260503030104 56 336 4.0 6.0 0.00 0.66 0.52 69 1018.4
20260503024555 56 337 4.0 8.0 0.00 0.94 0.52 70 1018.3